Time,TemperatureF,DewpointF,PressureIn,WindDirection,WindDirectionDegrees,WindSpeedMPH,WindSpeedGustMPH,Humidity,HourlyPrecipIn,Conditions,Clouds,dailyrainin,SolarRadiationWatts/m^2,SoftwareType,DateUTC
2013-01-20 00:04:00,31.0,27.0,29.47,SSE,150,0.0,2.0,85,0.00,,,0.00,0,WeatherCatV1.13B101,2013-01-20 00:04:00,
2013-01-20 00:09:00,31.0,27.0,29.47,ESE,107,0.0,5.0,85,0.00,,,0.00,0,WeatherCatV1.13B101,2013-01-20 00:09:00,
2013-01-20 00:14:00,30.9,26.9,29.47,SE,126,4.0,7.0,85,0.00,,,0.00,0,WeatherCatV1.13B101,2013-01-20 00:14:00,
2013-01-20 00:19:00,30.9,27.2,29.47,SSW,199,1.0,3.0,86,0.00,,,0.00,0,WeatherCatV1.13B101,2013-01-20 00:19:00,
2013-01-20 00:24:00,30.9,27.2,29.47,SE,145,0.0,0.0,86,0.00,,,0.00,0,WeatherCatV1.13B101,2013-01-20 00:24:00,
2013-01-20 00:29:00,30.8,27.1,29.46,SSE,157,0.0,4.0,86,0.00,,,0.00,0,WeatherCatV1.13B101,2013-01-20 00:29:00,
2013-01-20 00:34:00,30.8,27.1,29.46,SE,136,1.0,2.0,86,0.00,,,0.00,0,WeatherCatV1.13B101,2013-01-20 00:34:00,
2013-01-20 00:39:00,30.8,27.1,29.46,WSW,240,0.0,8.0,86,0.00,,,0.00,0,WeatherCatV1.13B101,2013-01-20 00:39:00,
2013-01-20 00:44:00,30.7,27.0,29.46,ESE,121,2.0,3.0,86,0.00,,,0.00,0,WeatherCatV1.13B101,2013-01-20 00:44:00,
2013-01-20 00:49:00,30.7,27.0,29.46,SE,140,0.0,0.0,86,0.00,,,0.00,0,WeatherCatV1.13B101,2013-01-20 00:49:00,
2013-01-20 00:54:00,30.7,27.0,29.46,NW,316,0.0,3.0,86,0.00,,,0.00,0,WeatherCatV1.13B101,2013-01-20 00:54:00,
2013-01-20 00:59:00,30.7,27.0,29.46,SE,130,1.0,1.0,86,0.00,,,0.00,0,WeatherCatV1.13B101,2013-01-20 00:59:00,
2013-01-20 01:04:00,30.6,26.9,29.46,SE,138,0.0,2.0,86,0.00,,,0.00,0,WeatherCatV1.13B101,2013-01-20 01:04:00,
2013-01-20 01:09:00,30.6,26.9,29.45,SE,134,0.0,3.0,86,0.00,,,0.00,0,WeatherCatV1.13B101,2013-01-20 01:09:00,
2013-01-20 01:14:00,30.6,26.9,29.45,SSE,153,1.0,7.0,86,0.00,,,0.00,0,WeatherCatV1.13B101,2013-01-20 01:14:00,
2013-01-20 01:19:00,30.5,26.8,29.45,SE,144,1.0,1.0,86,0.00,,,0.00,0,WeatherCatV1.13B101,2013-01-20 01:19:00,
2013-01-20 01:24:00,30.5,26.8,29.45,NW,313,1.0,3.0,86,0.00,,,0.00,0,WeatherCatV1.13B101,2013-01-20 01:24:00,
2013-01-20 01:29:00,30.5,27.1,29.45,SSE,159,0.0,2.0,87,0.00,,,0.00,0,WeatherCatV1.13B101,2013-01-20 01:29:00,
2013-01-20 01:34:00,30.4,27.0,29.45,SE,141,0.0,3.0,87,0.00,,,0.00,0,WeatherCatV1.13B101,2013-01-20 01:34:00,
2013-01-20 01:39:00,30.3,26.9,29.45,SE,146,0.0,1.0,87,0.00,,,0.00,0,WeatherCatV1.13B101,2013-01-20 01:39:00,
2013-01-20 01:44:00,30.3,26.9,29.44,SSE,147,0.0,6.0,87,0.00,,,0.00,0,WeatherCatV1.13B101,2013-01-20 01:44:00,
2013-01-20 01:49:00,30.2,27.1,29.44,SSE,159,0.0,2.0,88,0.00,,,0.00,0,WeatherCatV1.13B101,2013-01-20 01:49:00,
2013-01-20 01:54:00,30.2,27.1,29.44,SSE,165,0.0,2.0,88,0.00,,,0.00,0,WeatherCatV1.13B101,2013-01-20 01:54:00,
2013-01-20 01:59:00,30.1,27.3,29.44,SE,134,2.0,4.0,89,0.00,,,0.00,0,WeatherCatV1.13B101,2013-01-20 01:59:00,
2013-01-20 02:04:00,30.1,27.3,29.44,SE,130,3.0,3.0,89,0.00,,,0.00,0,WeatherCatV1.13B101,2013-01-20 02:04:00,
2013-01-20 02:09:00,30.1,27.3,29.44,SE,133,0.0,1.0,89,0.00,,,0.00,0,WeatherCatV1.13B101,2013-01-20 02:09:00,
2013-01-20 02:14:00,30.1,27.5,29.44,SE,132,0.0,2.0,90,0.00,,,0.00,0,WeatherCatV1.13B101,2013-01-20 02:14:00,
2013-01-20 02:19:00,30.1,27.5,29.44,ESE,121,0.0,0.0,90,0.00,,,0.00,0,WeatherCatV1.13B101,2013-01-20 02:19:00,
2013-01-20 02:24:00,30.1,27.5,29.44,ESE,113,1.0,4.0,90,0.00,,,0.00,0,WeatherCatV1.13B101,2013-01-20 02:24:00,
2013-01-20 02:29:00,30.1,27.3,29.44,WNW,296,1.0,1.0,89,0.00,,,0.00,0,WeatherCatV1.13B101,2013-01-20 02:29:00,
2013-01-20 02:34:00,30.2,27.4,29.44,North,11,1.0,2.0,89,0.00,,,0.00,0,WeatherCatV1.13B101,2013-01-20 02:34:00,
2013-01-20 02:39:00,30.2,27.1,29.44,SE,134,1.0,2.0,88,0.00,,,0.00,0,WeatherCatV1.13B101,2013-01-20 02:39:00,
2013-01-20 02:44:00,30.2,27.1,29.44,SE,141,0.0,2.0,88,0.00,,,0.00,0,WeatherCatV1.13B101,2013-01-20 02:44:00,
2013-01-20 02:49:00,30.2,26.8,29.44,SSE,164,1.0,6.0,87,0.00,,,0.00,0,WeatherCatV1.13B101,2013-01-20 02:49:00,
2013-01-20 02:54:00,30.2,26.8,29.43,East,92,0.0,5.0,87,0.00,,,0.00,0,WeatherCatV1.13B101,2013-01-20 02:54:00,
2013-01-20 02:59:00,30.3,26.9,29.44,SE,131,0.0,6.0,87,0.00,,,0.00,0,WeatherCatV1.13B101,2013-01-20 02:59:00,
2013-01-20 03:04:00,30.3,26.6,29.44,SE,138,0.0,4.0,86,0.00,,,0.00,0,WeatherCatV1.13B101,2013-01-20 03:04:00,
2013-01-20 03:09:00,30.3,26.6,29.44,SSE,150,1.0,4.0,86,0.00,,,0.00,0,WeatherCatV1.13B101,2013-01-20 03:09:00,
2013-01-20 03:14:00,30.3,26.6,29.44,SSE,158,0.0,2.0,86,0.00,,,0.00,0,WeatherCatV1.13B101,2013-01-20 03:14:00,
2013-01-20 03:19:00,30.3,26.6,29.44,SSE,159,0.0,3.0,86,0.00,,,0.00,0,WeatherCatV1.13B101,2013-01-20 03:19:00,
2013-01-20 03:24:00,30.3,26.6,29.44,SE,127,0.0,3.0,86,0.00,,,0.00,0,WeatherCatV1.13B101,2013-01-20 03:24:00,
2013-01-20 03:29:00,30.3,26.6,29.44,SSE,163,2.0,3.0,86,0.00,,,0.00,0,WeatherCatV1.13B101,2013-01-20 03:29:00,
2013-01-20 03:34:00,30.3,26.9,29.44,SSE,155,1.0,3.0,87,0.00,,,0.00,0,WeatherCatV1.13B101,2013-01-20 03:34:00,
2013-01-20 03:39:00,30.3,26.9,29.44,SE,138,0.0,0.0,87,0.00,,,0.00,0,WeatherCatV1.13B101,2013-01-20 03:39:00,
2013-01-20 03:44:00,30.3,26.9,29.44,SE,143,0.0,1.0,87,0.00,,,0.00,0,WeatherCatV1.13B101,2013-01-20 03:44:00,
2013-01-20 03:49:00,30.2,27.1,29.44,SSE,151,0.0,2.0,88,0.00,,,0.00,0,WeatherCatV1.13B101,2013-01-20 03:49:00,
2013-01-20 03:54:00,30.1,27.0,29.44,SE,135,1.0,2.0,88,0.00,,,0.00,0,WeatherCatV1.13B101,2013-01-20 03:54:00,
2013-01-20 03:59:00,30.1,27.0,29.44,ESE,105,0.0,2.0,88,0.00,,,0.00,0,WeatherCatV1.13B101,2013-01-20 03:59:00,
2013-01-20 04:04:00,30.1,27.3,29.44,South,177,1.0,1.0,89,0.00,,,0.00,0,WeatherCatV1.13B101,2013-01-20 04:04:00,
2013-01-20 04:09:00,30.0,27.2,29.44,SE,140,1.0,1.0,89,0.00,,,0.00,0,WeatherCatV1.13B101,2013-01-20 04:09:00,
2013-01-20 04:14:00,29.9,27.3,29.43,SE,146,0.0,4.0,90,0.00,,,0.00,0,WeatherCatV1.13B101,2013-01-20 04:14:00,
2013-01-20 04:19:00,29.8,27.2,29.43,SSE,160,0.0,1.0,90,0.00,,,0.00,0,WeatherCatV1.13B101,2013-01-20 04:19:00,
2013-01-20 04:24:00,29.8,27.5,29.43,SW,224,0.0,4.0,91,0.00,,,0.00,0,WeatherCatV1.13B101,2013-01-20 04:24:00,
2013-01-20 04:29:00,29.7,27.4,29.42,SSE,161,0.0,10.0,91,0.00,,,0.00,0,WeatherCatV1.13B101,2013-01-20 04:29:00,
2013-01-20 04:34:00,29.6,27.3,29.42,ESE,107,0.0,4.0,91,0.00,,,0.00,0,WeatherCatV1.13B101,2013-01-20 04:34:00,
2013-01-20 04:39:00,29.6,27.6,29.42,SE,141,1.0,1.0,92,0.00,,,0.00,0,WeatherCatV1.13B101,2013-01-20 04:39:00,
2013-01-20 04:44:00,29.5,27.5,29.42,NNW,345,0.0,3.0,92,0.00,,,0.00,0,WeatherCatV1.13B101,2013-01-20 04:44:00,
2013-01-20 04:49:00,29.5,27.5,29.42,SE,144,1.0,5.0,92,0.00,,,0.00,0,WeatherCatV1.13B101,2013-01-20 04:49:00,
2013-01-20 04:54:00,29.5,27.5,29.42,SE,136,1.0,4.0,92,0.00,,,0.00,0,WeatherCatV1.13B101,2013-01-20 04:54:00,
2013-01-20 04:59:00,29.6,27.6,29.42,SSE,153,1.0,1.0,92,0.00,,,0.00,0,WeatherCatV1.13B101,2013-01-20 04:59:00,
2013-01-20 05:00:00,29.5,27.5,29.42,WSW,248,0.0,2.0,92,0.00,,,0.00,0,WeatherCatV1.13B101,2013-01-20 05:00:00,
2013-01-20 05:05:00,29.6,27.3,29.42,SW,236,0.0,1.0,91,0.00,,,0.00,0,WeatherCatV1.13B101,2013-01-20 05:05:00,
2013-01-20 05:10:00,29.6,27.3,29.41,SW,221,0.0,6.0,91,0.00,,,0.00,0,WeatherCatV1.13B101,2013-01-20 05:10:00,
2013-01-20 05:15:00,29.6,27.3,29.41,SE,126,0.0,4.0,91,0.00,,,0.00,0,WeatherCatV1.13B101,2013-01-20 05:15:00,
2013-01-20 05:20:00,29.6,27.3,29.41,SE,126,0.0,3.0,91,0.00,,,0.00,0,WeatherCatV1.13B101,2013-01-20 05:20:00,
2013-01-20 05:25:00,29.6,27.3,29.41,East,101,0.0,1.0,91,0.00,,,0.00,0,WeatherCatV1.13B101,2013-01-20 05:25:00,
2013-01-20 05:30:00,29.6,27.3,29.42,NW,309,0.0,1.0,91,0.00,,,0.00,0,WeatherCatV1.13B101,2013-01-20 05:30:00,
2013-01-20 05:35:00,29.6,27.6,29.42,SE,143,0.0,2.0,92,0.00,,,0.00,0,WeatherCatV1.13B101,2013-01-20 05:35:00,
2013-01-20 05:36:00,29.6,27.6,29.42,SE,142,1.0,2.0,92,0.00,,,0.00,0,WeatherCatV1.13B101,2013-01-20 05:36:00,
2013-01-20 05:41:00,29.6,27.6,29.42,ESE,116,0.0,4.0,92,0.00,,,0.00,0,WeatherCatV1.13B101,2013-01-20 05:41:00,
2013-01-20 05:46:00,29.6,27.6,29.41,SE,140,0.0,3.0,92,0.00,,,0.00,0,WeatherCatV1.13B101,2013-01-20 05:46:00,
2013-01-20 05:51:00,29.7,27.7,29.41,SSE,148,2.0,2.0,92,0.00,,,0.00,0,WeatherCatV1.13B101,2013-01-20 05:51:00,
2013-01-20 05:56:00,29.7,27.7,29.41,SSE,148,3.0,3.0,92,0.00,,,0.00,0,WeatherCatV1.13B101,2013-01-20 05:56:00,
2013-01-20 06:01:00,29.7,27.4,29.41,SE,132,0.0,4.0,91,0.00,,,0.00,0,WeatherCatV1.13B101,2013-01-20 06:01:00,
2013-01-20 06:06:00,29.7,27.7,29.41,SSE,152,0.0,1.0,92,0.00,,,0.00,0,WeatherCatV1.13B101,2013-01-20 06:06:00,
2013-01-20 06:11:00,29.7,27.7,29.41,SE,130,0.0,3.0,92,0.00,,,0.00,0,WeatherCatV1.13B101,2013-01-20 06:11:00,
2013-01-20 06:16:00,29.6,27.6,29.41,SSE,154,0.0,2.0,92,0.00,,,0.00,0,WeatherCatV1.13B101,2013-01-20 06:16:00,
2013-01-20 06:21:00,29.6,27.8,29.41,SE,142,0.0,4.0,93,0.00,,,0.00,0,WeatherCatV1.13B101,2013-01-20 06:21:00,
2013-01-20 06:26:00,29.6,27.8,29.41,SE,124,1.0,1.0,93,0.00,,,0.00,0,WeatherCatV1.13B101,2013-01-20 06:26:00,
2013-01-20 06:31:00,29.6,27.8,29.41,SSE,165,2.0,4.0,93,0.00,,,0.00,0,WeatherCatV1.13B101,2013-01-20 06:31:00,
2013-01-20 06:36:00,29.6,27.8,29.41,SE,132,2.0,2.0,93,0.00,,,0.00,0,WeatherCatV1.13B101,2013-01-20 06:36:00,
2013-01-20 06:41:00,29.6,27.8,29.41,SE,140,3.0,3.0,93,0.00,,,0.00,0,WeatherCatV1.13B101,2013-01-20 06:41:00,
2013-01-20 06:46:00,29.6,27.8,29.41,SE,127,1.0,3.0,93,0.00,,,0.00,0,WeatherCatV1.13B101,2013-01-20 06:46:00,
2013-01-20 06:51:00,29.5,27.7,29.41,SE,145,0.0,3.0,93,0.00,,,0.00,0,WeatherCatV1.13B101,2013-01-20 06:51:00,
2013-01-20 06:56:00,29.5,27.7,29.41,SE,126,0.0,4.0,93,0.00,,,0.00,0,WeatherCatV1.13B101,2013-01-20 06:56:00,
2013-01-20 07:01:00,29.5,27.7,29.41,SE,137,3.0,3.0,93,0.00,,,0.00,0,WeatherCatV1.13B101,2013-01-20 07:01:00,
2013-01-20 07:06:00,29.4,27.6,29.41,SE,130,0.0,3.0,93,0.00,,,0.00,0,WeatherCatV1.13B101,2013-01-20 07:06:00,
2013-01-20 07:11:00,29.4,27.6,29.41,SE,127,3.0,5.0,93,0.00,,,0.00,0,WeatherCatV1.13B101,2013-01-20 07:11:00,
2013-01-20 07:16:00,29.4,27.6,29.41,SE,143,0.0,4.0,93,0.00,,,0.00,0,WeatherCatV1.13B101,2013-01-20 07:16:00,
2013-01-20 07:21:00,29.4,27.6,29.41,SE,140,0.0,2.0,93,0.00,,,0.00,0,WeatherCatV1.13B101,2013-01-20 07:21:00,
2013-01-20 07:26:00,29.3,27.5,29.41,SSE,152,0.0,1.0,93,0.00,,,0.00,0,WeatherCatV1.13B101,2013-01-20 07:26:00,
2013-01-20 07:31:00,29.3,27.5,29.41,North,355,1.0,4.0,93,0.00,,,0.00,0,WeatherCatV1.13B101,2013-01-20 07:31:00,
2013-01-20 07:36:00,29.3,27.5,29.41,South,180,0.0,1.0,93,0.00,,,0.00,0,WeatherCatV1.13B101,2013-01-20 07:36:00,
2013-01-20 07:41:00,29.3,27.5,29.41,SE,126,0.0,3.0,93,0.00,,,0.00,0,WeatherCatV1.13B101,2013-01-20 07:41:00,
2013-01-20 07:46:00,29.3,27.5,29.41,SE,134,2.0,3.0,93,0.00,,,0.00,0,WeatherCatV1.13B101,2013-01-20 07:46:00,
2013-01-20 07:51:00,29.3,27.5,29.41,ESE,115,0.0,1.0,93,0.00,,,0.00,0,WeatherCatV1.13B101,2013-01-20 07:51:00,
2013-01-20 07:56:00,29.3,27.5,29.41,SE,126,0.0,0.0,93,0.00,,,0.00,0,WeatherCatV1.13B101,2013-01-20 07:56:00,
2013-01-20 08:01:00,29.3,27.5,29.41,SSE,162,0.0,0.0,93,0.00,,,0.00,0,WeatherCatV1.13B101,2013-01-20 08:01:00,
2013-01-20 08:06:00,29.3,27.5,29.41,West,266,0.0,1.0,93,0.00,,,0.00,0,WeatherCatV1.13B101,2013-01-20 08:06:00,
2013-01-20 08:11:00,29.3,27.5,29.42,SE,130,0.0,1.0,93,0.00,,,0.00,0,WeatherCatV1.13B101,2013-01-20 08:11:00,
2013-01-20 08:16:00,29.4,27.6,29.41,SE,130,2.0,2.0,93,0.00,,,0.00,0,WeatherCatV1.13B101,2013-01-20 08:16:00,
2013-01-20 08:21:00,29.4,27.6,29.41,South,186,1.0,2.0,93,0.00,,,0.00,0,WeatherCatV1.13B101,2013-01-20 08:21:00,
2013-01-20 08:26:00,29.4,27.6,29.41,East,98,0.0,1.0,93,0.00,,,0.00,0,WeatherCatV1.13B101,2013-01-20 08:26:00,
2013-01-20 08:31:00,29.4,27.6,29.41,SE,144,1.0,2.0,93,0.00,,,0.00,0,WeatherCatV1.13B101,2013-01-20 08:31:00,
2013-01-20 08:36:00,29.5,27.7,29.41,East,101,0.0,2.0,93,0.00,,,0.00,5,WeatherCatV1.13B101,2013-01-20 08:36:00,
2013-01-20 08:41:00,29.5,27.7,29.41,NNW,330,0.0,2.0,93,0.00,,,0.00,5,WeatherCatV1.13B101,2013-01-20 08:41:00,
2013-01-20 08:46:00,29.5,27.7,29.41,NNW,330,0.0,1.0,93,0.00,,,0.00,9,WeatherCatV1.13B101,2013-01-20 08:46:00,
2013-01-20 08:51:00,29.5,27.7,29.41,NNW,329,0.0,1.0,93,0.00,,,0.00,11,WeatherCatV1.13B101,2013-01-20 08:51:00,
2013-01-20 08:56:00,29.5,27.7,29.40,NNW,329,0.0,0.0,93,0.00,,,0.00,18,WeatherCatV1.13B101,2013-01-20 08:56:00,
2013-01-20 09:01:00,29.6,28.1,29.40,NNW,329,0.0,1.0,94,0.00,,,0.00,21,WeatherCatV1.13B101,2013-01-20 09:01:00,
2013-01-20 09:06:00,29.5,28.0,29.40,SE,131,1.0,3.0,94,0.00,,,0.00,26,WeatherCatV1.13B101,2013-01-20 09:06:00,
2013-01-20 09:11:00,29.5,28.0,29.40,NE,44,0.0,1.0,94,0.00,,,0.00,33,WeatherCatV1.13B101,2013-01-20 09:11:00,
2013-01-20 09:16:00,29.5,28.0,29.40,SSW,197,0.0,1.0,94,0.00,,,0.00,37,WeatherCatV1.13B101,2013-01-20 09:16:00,
2013-01-20 09:21:00,29.5,28.0,29.40,West,259,0.0,1.0,94,0.00,,,0.00,40,WeatherCatV1.13B101,2013-01-20 09:21:00,
2013-01-20 09:26:00,29.5,28.0,29.40,East,82,0.0,1.0,94,0.00,,,0.00,40,WeatherCatV1.13B101,2013-01-20 09:26:00,
2013-01-20 09:31:00,29.5,28.2,29.40,SE,126,1.0,1.0,95,0.00,,,0.00,44,WeatherCatV1.13B101,2013-01-20 09:31:00,
2013-01-20 09:36:00,29.6,28.3,29.40,NNW,330,0.0,1.0,95,0.00,,,0.00,51,WeatherCatV1.13B101,2013-01-20 09:36:00,
2013-01-20 09:41:00,29.6,28.3,29.40,NNW,346,0.0,1.0,95,0.00,,,0.00,53,WeatherCatV1.13B101,2013-01-20 09:41:00,
2013-01-20 09:46:00,29.6,28.3,29.40,North,0,0.0,1.0,95,0.00,,,0.00,49,WeatherCatV1.13B101,2013-01-20 09:46:00,
2013-01-20 09:51:00,29.7,28.4,29.40,ESE,116,0.0,1.0,95,0.00,,,0.00,47,WeatherCatV1.13B101,2013-01-20 09:51:00,
2013-01-20 09:56:00,29.7,28.4,29.40,SE,133,0.0,1.0,95,0.00,,,0.00,47,WeatherCatV1.13B101,2013-01-20 09:56:00,
2013-01-20 10:01:00,29.8,28.5,29.40,SE,127,0.0,1.0,95,0.00,,,0.00,46,WeatherCatV1.13B101,2013-01-20 10:01:00,
2013-01-20 10:06:00,29.7,28.4,29.39,SE,127,0.0,0.0,95,0.00,,,0.00,51,WeatherCatV1.13B101,2013-01-20 10:06:00,
2013-01-20 10:11:00,29.8,28.5,29.39,West,263,1.0,1.0,95,0.00,,,0.00,58,WeatherCatV1.13B101,2013-01-20 10:11:00,
2013-01-20 10:16:00,29.8,28.5,29.39,SSE,151,0.0,2.0,95,0.00,,,0.00,69,WeatherCatV1.13B101,2013-01-20 10:16:00,
2013-01-20 10:21:00,29.8,28.5,29.39,NNE,13,0.0,1.0,95,0.00,,,0.00,84,WeatherCatV1.13B101,2013-01-20 10:21:00,
2013-01-20 10:26:00,29.9,28.6,29.39,SSW,205,0.0,2.0,95,0.00,,,0.00,90,WeatherCatV1.13B101,2013-01-20 10:26:00,
2013-01-20 10:31:00,30.0,28.7,29.39,ESE,109,0.0,0.0,95,0.00,,,0.00,90,WeatherCatV1.13B101,2013-01-20 10:31:00,
2013-01-20 10:36:00,30.1,28.8,29.39,NNW,330,0.0,2.0,95,0.00,,,0.00,84,WeatherCatV1.13B101,2013-01-20 10:36:00,
2013-01-20 10:41:00,30.1,29.1,29.39,NNW,330,0.0,2.0,96,0.00,,,0.00,84,WeatherCatV1.13B101,2013-01-20 10:41:00,
2013-01-20 10:46:00,30.1,29.1,29.39,NNW,330,0.0,1.0,96,0.00,,,0.00,83,WeatherCatV1.13B101,2013-01-20 10:46:00,
2013-01-20 10:51:00,30.2,29.2,29.39,NNW,346,0.0,1.0,96,0.00,,,0.00,86,WeatherCatV1.13B101,2013-01-20 10:51:00,
2013-01-20 10:56:00,30.3,29.3,29.39,NNW,346,0.0,0.0,96,0.00,,,0.00,91,WeatherCatV1.13B101,2013-01-20 10:56:00,
2013-01-20 11:01:00,30.3,29.3,29.38,NNW,328,0.0,1.0,96,0.00,,,0.00,93,WeatherCatV1.13B101,2013-01-20 11:01:00,
2013-01-20 11:06:00,30.3,29.3,29.38,NW,318,0.0,1.0,96,0.00,,,0.00,97,WeatherCatV1.13B101,2013-01-20 11:06:00,
2013-01-20 11:11:00,30.4,29.4,29.38,NW,318,0.0,0.0,96,0.00,,,0.00,95,WeatherCatV1.13B101,2013-01-20 11:11:00,
2013-01-20 11:16:00,30.5,29.5,29.38,NW,318,0.0,1.0,96,0.00,,,0.00,95,WeatherCatV1.13B101,2013-01-20 11:16:00,
2013-01-20 11:21:00,30.5,29.5,29.38,NW,320,0.0,1.0,96,0.00,,,0.00,97,WeatherCatV1.13B101,2013-01-20 11:21:00,
2013-01-20 11:26:00,30.5,29.5,29.37,SSE,157,0.0,0.0,96,0.00,,,0.00,98,WeatherCatV1.13B101,2013-01-20 11:26:00,
2013-01-20 11:31:00,30.5,29.2,29.37,SSW,211,0.0,1.0,95,0.00,,,0.00,97,WeatherCatV1.13B101,2013-01-20 11:31:00,
2013-01-20 11:36:00,30.6,29.6,29.36,WSW,242,0.0,1.0,96,0.00,,,0.00,95,WeatherCatV1.13B101,2013-01-20 11:36:00,
2013-01-20 11:41:00,30.7,29.7,29.36,South,187,0.0,1.0,96,0.00,,,0.00,97,WeatherCatV1.13B101,2013-01-20 11:41:00,
2013-01-20 11:46:00,30.7,29.7,29.36,South,184,0.0,1.0,96,0.00,,,0.00,93,WeatherCatV1.13B101,2013-01-20 11:46:00,
2013-01-20 11:51:00,30.8,29.8,29.36,WSW,254,0.0,0.0,96,0.00,,,0.00,95,WeatherCatV1.13B101,2013-01-20 11:51:00,
2013-01-20 11:56:00,30.8,29.8,29.36,WSW,253,0.0,1.0,96,0.00,,,0.00,100,WeatherCatV1.13B101,2013-01-20 11:56:00,
2013-01-20 12:01:00,30.9,29.9,29.36,WSW,253,0.0,0.0,96,0.00,,,0.00,102,WeatherCatV1.13B101,2013-01-20 12:01:00,
2013-01-20 12:06:00,31.0,30.0,29.36,WSW,252,0.0,1.0,96,0.00,,,0.00,93,WeatherCatV1.13B101,2013-01-20 12:06:00,
2013-01-20 12:11:00,31.0,30.0,29.36,WSW,257,0.0,1.0,96,0.00,,,0.00,86,WeatherCatV1.13B101,2013-01-20 12:11:00,
2013-01-20 12:27:00,31.1,30.1,29.35,WSW,245,0.0,0.0,96,0.00,,,0.00,88,WeatherCatV1.13B101,2013-01-20 12:27:00,
2013-01-20 12:32:00,31.2,30.2,29.35,WSW,245,0.0,0.0,96,0.00,,,0.00,88,WeatherCatV1.13B101,2013-01-20 12:32:00,
2013-01-20 12:37:00,31.2,30.2,29.35,SW,218,0.0,1.0,96,0.00,,,0.00,86,WeatherCatV1.13B101,2013-01-20 12:37:00,
2013-01-20 12:42:00,31.3,30.3,29.35,NE,37,0.0,1.0,96,0.00,,,0.00,76,WeatherCatV1.13B101,2013-01-20 12:42:00,
2013-01-20 12:47:00,31.2,30.2,29.35,SE,144,0.0,1.0,96,0.00,,,0.00,76,WeatherCatV1.13B101,2013-01-20 12:47:00,
2013-01-20 12:52:00,31.3,30.3,29.35,SE,144,0.0,1.0,96,0.00,,,0.00,72,WeatherCatV1.13B101,2013-01-20 12:52:00,
2013-01-20 12:57:00,31.3,30.3,29.35,NNW,347,0.0,1.0,96,0.00,,,0.00,74,WeatherCatV1.13B101,2013-01-20 12:57:00,
2013-01-20 13:02:00,31.3,30.3,29.35,NNW,339,0.0,1.0,96,0.00,,,0.00,76,WeatherCatV1.13B101,2013-01-20 13:02:00,
2013-01-20 13:07:00,31.4,30.4,29.34,West,269,0.0,0.0,96,0.00,,,0.00,76,WeatherCatV1.13B101,2013-01-20 13:07:00,
2013-01-20 13:12:00,31.4,30.4,29.34,West,268,0.0,1.0,96,0.00,,,0.00,72,WeatherCatV1.13B101,2013-01-20 13:12:00,
2013-01-20 13:17:00,31.5,30.5,29.34,West,269,0.0,0.0,96,0.00,,,0.00,65,WeatherCatV1.13B101,2013-01-20 13:17:00,
2013-01-20 13:22:00,31.5,30.5,29.34,West,263,0.0,1.0,96,0.00,,,0.00,65,WeatherCatV1.13B101,2013-01-20 13:22:00,
2013-01-20 13:27:00,31.5,30.5,29.34,West,259,0.0,0.0,96,0.00,,,0.00,63,WeatherCatV1.13B101,2013-01-20 13:27:00,
2013-01-20 13:32:00,31.5,30.5,29.34,North,355,0.0,1.0,96,0.00,,,0.00,62,WeatherCatV1.13B101,2013-01-20 13:32:00,
2013-01-20 13:37:00,31.5,30.5,29.34,South,180,0.0,1.0,96,0.00,,,0.00,60,WeatherCatV1.13B101,2013-01-20 13:37:00,
2013-01-20 13:42:00,31.5,30.5,29.34,WSW,245,0.0,1.0,96,0.00,,,0.00,54,WeatherCatV1.13B101,2013-01-20 13:42:00,
2013-01-20 13:47:00,31.5,30.5,29.34,WNW,300,0.0,2.0,96,0.00,,,0.00,51,WeatherCatV1.13B101,2013-01-20 13:47:00,
2013-01-20 13:52:00,31.5,30.5,29.34,SW,232,0.0,1.0,96,0.00,,,0.00,51,WeatherCatV1.13B101,2013-01-20 13:52:00,
2013-01-20 13:57:00,31.5,30.5,29.33,WSW,244,0.0,2.0,96,0.00,,,0.00,56,WeatherCatV1.13B101,2013-01-20 13:57:00,
2013-01-20 14:02:00,31.5,30.5,29.33,NNE,13,0.0,0.0,96,0.00,,,0.00,63,WeatherCatV1.13B101,2013-01-20 14:02:00,
2013-01-20 14:07:00,31.6,30.6,29.33,SE,138,0.0,1.0,96,0.00,,,0.00,60,WeatherCatV1.13B101,2013-01-20 14:07:00,
2013-01-20 14:12:00,31.6,30.6,29.33,SSE,159,0.0,1.0,96,0.00,,,0.00,56,WeatherCatV1.13B101,2013-01-20 14:12:00,
2013-01-20 14:17:00,31.6,30.6,29.33,SE,140,0.0,1.0,96,0.00,,,0.00,58,WeatherCatV1.13B101,2013-01-20 14:17:00,
2013-01-20 14:22:00,31.7,30.7,29.33,East,80,0.0,0.0,96,0.00,,,0.00,63,WeatherCatV1.13B101,2013-01-20 14:22:00,
2013-01-20 14:27:00,31.7,30.7,29.33,South,179,0.0,0.0,96,0.00,,,0.00,63,WeatherCatV1.13B101,2013-01-20 14:27:00,
2013-01-20 14:32:00,31.8,30.8,29.33,SE,145,0.0,1.0,96,0.00,,,0.00,62,WeatherCatV1.13B101,2013-01-20 14:32:00,
2013-01-20 14:37:00,31.9,30.9,29.33,SSE,148,0.0,0.0,96,0.00,,,0.00,58,WeatherCatV1.13B101,2013-01-20 14:37:00,
2013-01-20 14:42:00,31.9,30.9,29.33,East,95,0.0,1.0,96,0.00,,,0.00,58,WeatherCatV1.13B101,2013-01-20 14:42:00,
2013-01-20 14:47:00,31.9,30.9,29.33,ESE,119,0.0,1.0,96,0.00,,,0.00,54,WeatherCatV1.13B101,2013-01-20 14:47:00,
2013-01-20 14:52:00,31.9,30.9,29.33,ESE,117,0.0,1.0,96,0.00,,,0.00,51,WeatherCatV1.13B101,2013-01-20 14:52:00,
2013-01-20 14:57:00,32.0,31.0,29.33,NW,315,0.0,1.0,96,0.00,,,0.00,47,WeatherCatV1.13B101,2013-01-20 14:57:00,
2013-01-20 15:02:00,31.9,30.9,29.32,NW,321,0.0,1.0,96,0.00,,,0.00,40,WeatherCatV1.13B101,2013-01-20 15:02:00,
2013-01-20 15:07:00,31.9,30.9,29.32,NNW,327,2.0,2.0,96,0.00,,,0.00,37,WeatherCatV1.13B101,2013-01-20 15:07:00,
2013-01-20 15:12:00,31.9,30.9,29.32,NNW,327,0.0,1.0,96,0.00,,,0.00,33,WeatherCatV1.13B101,2013-01-20 15:12:00,
2013-01-20 15:17:00,31.9,30.9,29.33,NW,313,0.0,1.0,96,0.00,,,0.00,30,WeatherCatV1.13B101,2013-01-20 15:17:00,
2013-01-20 15:22:00,31.8,30.8,29.32,NW,304,0.0,1.0,96,0.00,,,0.00,28,WeatherCatV1.13B101,2013-01-20 15:22:00,
2013-01-20 15:27:00,31.8,30.8,29.32,NW,311,1.0,1.0,96,0.00,,,0.00,25,WeatherCatV1.13B101,2013-01-20 15:27:00,
2013-01-20 15:32:00,31.8,30.8,29.32,NW,311,1.0,1.0,96,0.00,,,0.00,23,WeatherCatV1.13B101,2013-01-20 15:32:00,
2013-01-20 15:37:00,31.8,30.8,29.32,NW,312,0.0,0.0,96,0.00,,,0.00,21,WeatherCatV1.13B101,2013-01-20 15:37:00,
2013-01-20 15:42:00,31.8,30.8,29.32,NW,312,0.0,1.0,96,0.00,,,0.00,18,WeatherCatV1.13B101,2013-01-20 15:42:00,
2013-01-20 15:47:00,31.8,30.8,29.32,SSE,167,0.0,0.0,96,0.00,,,0.00,16,WeatherCatV1.13B101,2013-01-20 15:47:00,
2013-01-20 15:52:00,31.8,30.8,29.32,South,169,0.0,1.0,96,0.00,,,0.00,14,WeatherCatV1.13B101,2013-01-20 15:52:00,
2013-01-20 15:57:00,31.7,30.7,29.32,SSW,202,0.0,0.0,96,0.00,,,0.00,14,WeatherCatV1.13B101,2013-01-20 15:57:00,
2013-01-20 16:02:00,31.7,30.7,29.32,SSW,195,0.0,0.0,96,0.00,,,0.00,12,WeatherCatV1.13B101,2013-01-20 16:02:00,
2013-01-20 16:07:00,31.7,30.7,29.32,SSW,192,0.0,0.0,96,0.00,,,0.00,9,WeatherCatV1.13B101,2013-01-20 16:07:00,
2013-01-20 16:12:00,31.7,30.7,29.32,SSW,212,0.0,1.0,96,0.00,,,0.00,7,WeatherCatV1.13B101,2013-01-20 16:12:00,
2013-01-20 16:17:00,31.7,30.7,29.32,SSE,159,0.0,1.0,96,0.00,,,0.00,5,WeatherCatV1.13B101,2013-01-20 16:17:00,
2013-01-20 16:22:00,31.7,30.7,29.32,NNW,331,0.0,2.0,96,0.00,,,0.00,0,WeatherCatV1.13B101,2013-01-20 16:22:00,
2013-01-20 16:27:00,31.7,30.7,29.32,NNW,344,0.0,0.0,96,0.00,,,0.00,0,WeatherCatV1.13B101,2013-01-20 16:27:00,
2013-01-20 16:32:00,31.7,30.7,29.32,NNW,344,0.0,1.0,96,0.00,,,0.00,0,WeatherCatV1.13B101,2013-01-20 16:32:00,
2013-01-20 16:37:00,31.7,30.7,29.31,NNW,344,0.0,1.0,96,0.00,,,0.00,0,WeatherCatV1.13B101,2013-01-20 16:37:00,
2013-01-20 16:42:00,31.7,30.7,29.31,NNW,344,0.0,0.0,96,0.00,,,0.00,0,WeatherCatV1.13B101,2013-01-20 16:42:00,
2013-01-20 16:47:00,31.6,30.6,29.31,NNW,344,0.0,0.0,96,0.00,,,0.00,0,WeatherCatV1.13B101,2013-01-20 16:47:00,
2013-01-20 16:52:00,31.6,30.6,29.32,NNW,347,0.0,1.0,96,0.00,,,0.00,0,WeatherCatV1.13B101,2013-01-20 16:52:00,
2013-01-20 16:57:00,31.6,30.6,29.31,NNW,346,0.0,0.0,96,0.00,,,0.00,0,WeatherCatV1.13B101,2013-01-20 16:57:00,
2013-01-20 17:02:00,31.6,30.6,29.31,NNW,347,0.0,0.0,96,0.00,,,0.00,0,WeatherCatV1.13B101,2013-01-20 17:02:00,
2013-01-20 17:07:00,31.6,30.6,29.31,NNW,346,0.0,0.0,96,0.00,,,0.00,0,WeatherCatV1.13B101,2013-01-20 17:07:00,
2013-01-20 17:12:00,31.6,30.6,29.31,West,280,0.0,1.0,96,0.00,,,0.00,0,WeatherCatV1.13B101,2013-01-20 17:12:00,
2013-01-20 17:17:00,31.6,30.8,29.30,NNE,32,0.0,0.0,97,0.00,,,0.00,0,WeatherCatV1.13B101,2013-01-20 17:17:00,
2013-01-20 17:22:00,31.6,30.8,29.31,SSE,149,0.0,0.0,97,0.00,,,0.00,0,WeatherCatV1.13B101,2013-01-20 17:22:00,
2013-01-20 17:27:00,31.5,30.7,29.31,WSW,247,0.0,0.0,97,0.00,,,0.00,0,WeatherCatV1.13B101,2013-01-20 17:27:00,
2013-01-20 17:32:00,31.5,30.7,29.30,WSW,247,0.0,0.0,97,0.00,,,0.00,0,WeatherCatV1.13B101,2013-01-20 17:32:00,
2013-01-20 17:37:00,31.5,30.7,29.30,NNW,348,0.0,1.0,97,0.00,,,0.00,0,WeatherCatV1.13B101,2013-01-20 17:37:00,
2013-01-20 17:42:00,31.5,30.7,29.30,ESE,120,0.0,0.0,97,0.00,,,0.00,0,WeatherCatV1.13B101,2013-01-20 17:42:00,
2013-01-20 17:47:00,31.5,30.7,29.30,WNW,299,0.0,0.0,97,0.00,,,0.00,0,WeatherCatV1.13B101,2013-01-20 17:47:00,
2013-01-20 17:52:00,31.5,30.7,29.30,West,281,0.0,0.0,97,0.00,,,0.00,0,WeatherCatV1.13B101,2013-01-20 17:52:00,
2013-01-20 17:57:00,31.5,30.7,29.30,WNW,302,0.0,0.0,97,0.00,,,0.00,0,WeatherCatV1.13B101,2013-01-20 17:57:00,
2013-01-20 18:02:00,31.5,30.7,29.29,NW,323,0.0,0.0,97,0.00,,,0.00,0,WeatherCatV1.13B101,2013-01-20 18:02:00,
2013-01-20 18:07:00,31.5,30.7,29.30,NW,323,0.0,0.0,97,0.00,,,0.00,0,WeatherCatV1.13B101,2013-01-20 18:07:00,
2013-01-20 18:12:00,31.4,30.6,29.29,NW,323,0.0,0.0,97,0.00,,,0.00,0,WeatherCatV1.13B101,2013-01-20 18:12:00,
2013-01-20 18:17:00,31.4,30.6,29.29,NW,325,0.0,1.0,97,0.00,,,0.00,0,WeatherCatV1.13B101,2013-01-20 18:17:00,
2013-01-20 18:22:00,31.4,30.6,29.29,NW,325,0.0,0.0,97,0.00,,,0.00,0,WeatherCatV1.13B101,2013-01-20 18:22:00,
2013-01-20 18:27:00,31.4,30.6,29.29,NW,325,0.0,0.0,97,0.00,,,0.00,0,WeatherCatV1.13B101,2013-01-20 18:27:00,
2013-01-20 18:32:00,31.3,30.3,29.29,ESE,115,0.0,0.0,96,0.00,,,0.00,0,WeatherCatV1.13B101,2013-01-20 18:32:00,
2013-01-20 18:37:00,31.4,30.6,29.29,SSE,152,0.0,0.0,97,0.00,,,0.00,0,WeatherCatV1.13B101,2013-01-20 18:37:00,
2013-01-20 18:42:00,31.4,30.6,29.29,South,189,0.0,0.0,97,0.00,,,0.00,0,WeatherCatV1.13B101,2013-01-20 18:42:00,
2013-01-20 18:47:00,31.4,30.6,29.29,South,175,0.0,0.0,97,0.00,,,0.00,0,WeatherCatV1.13B101,2013-01-20 18:47:00,
2013-01-20 18:52:00,31.3,30.5,29.29,West,268,0.0,1.0,97,0.00,,,0.00,0,WeatherCatV1.13B101,2013-01-20 18:52:00,
2013-01-20 18:57:00,31.4,30.6,29.29,NNW,345,0.0,0.0,97,0.00,,,0.00,0,WeatherCatV1.13B101,2013-01-20 18:57:00,
2013-01-20 19:02:00,31.4,30.6,29.29,NNW,338,0.0,1.0,97,0.00,,,0.00,0,WeatherCatV1.13B101,2013-01-20 19:02:00,
2013-01-20 19:07:00,31.4,30.4,29.29,SE,144,0.0,1.0,96,0.00,,,0.00,0,WeatherCatV1.13B101,2013-01-20 19:07:00,
2013-01-20 19:12:00,31.3,30.5,29.29,SSE,157,0.0,0.0,97,0.00,,,0.00,0,WeatherCatV1.13B101,2013-01-20 19:12:00,
2013-01-20 19:17:00,31.3,30.5,29.29,SSE,161,0.0,0.0,97,0.00,,,0.00,0,WeatherCatV1.13B101,2013-01-20 19:17:00,
2013-01-20 19:22:00,31.3,30.5,29.29,East,80,0.0,0.0,97,0.00,,,0.00,0,WeatherCatV1.13B101,2013-01-20 19:22:00,
2013-01-20 19:27:00,31.3,30.3,29.29,NE,37,0.0,1.0,96,0.00,,,0.00,0,WeatherCatV1.13B101,2013-01-20 19:27:00,
2013-01-20 19:32:00,31.4,30.6,29.29,SSE,161,0.0,0.0,97,0.00,,,0.00,0,WeatherCatV1.13B101,2013-01-20 19:32:00,
2013-01-20 19:37:00,31.4,30.6,29.29,SSE,161,0.0,0.0,97,0.00,,,0.00,0,WeatherCatV1.13B101,2013-01-20 19:37:00,
2013-01-20 19:42:00,31.3,30.5,29.29,SSE,161,0.0,0.0,97,0.00,,,0.00,0,WeatherCatV1.13B101,2013-01-20 19:42:00,
2013-01-20 19:47:00,31.3,30.5,29.29,South,184,0.0,0.0,97,0.00,,,0.00,0,WeatherCatV1.13B101,2013-01-20 19:47:00,
2013-01-20 19:52:00,31.3,30.5,29.29,South,184,0.0,0.0,97,0.00,,,0.00,0,WeatherCatV1.13B101,2013-01-20 19:52:00,
2013-01-20 19:57:00,31.3,30.5,29.29,South,184,0.0,0.0,97,0.00,,,0.00,0,WeatherCatV1.13B101,2013-01-20 19:57:00,
2013-01-20 20:02:00,31.3,30.5,29.29,NNE,25,0.0,0.0,97,0.00,,,0.00,0,WeatherCatV1.13B101,2013-01-20 20:02:00,
2013-01-20 20:07:00,31.3,30.5,29.28,NNE,25,0.0,0.0,97,0.00,,,0.00,0,WeatherCatV1.13B101,2013-01-20 20:07:00,
2013-01-20 20:12:00,31.3,30.5,29.28,NNE,25,0.0,0.0,97,0.00,,,0.00,0,WeatherCatV1.13B101,2013-01-20 20:12:00,
2013-01-20 20:17:00,31.2,30.2,29.28,South,188,0.0,0.0,96,0.00,,,0.00,0,WeatherCatV1.13B101,2013-01-20 20:17:00,
2013-01-20 20:22:00,31.2,30.5,29.28,South,188,0.0,0.0,97,0.00,,,0.00,0,WeatherCatV1.13B101,2013-01-20 20:22:00,
2013-01-20 20:27:00,31.2,30.5,29.28,South,173,0.0,1.0,97,0.00,,,0.00,0,WeatherCatV1.13B101,2013-01-20 20:27:00,
2013-01-20 20:32:00,31.2,30.5,29.28,South,173,0.0,0.0,97,0.00,,,0.00,0,WeatherCatV1.13B101,2013-01-20 20:32:00,
2013-01-20 20:37:00,31.2,30.5,29.28,SSE,167,0.0,1.0,97,0.00,,,0.00,0,WeatherCatV1.13B101,2013-01-20 20:37:00,
2013-01-20 20:42:00,31.2,30.5,29.28,SSE,167,0.0,0.0,97,0.00,,,0.00,0,WeatherCatV1.13B101,2013-01-20 20:42:00,
2013-01-20 20:47:00,31.2,30.5,29.28,South,182,0.0,0.0,97,0.00,,,0.00,0,WeatherCatV1.13B101,2013-01-20 20:47:00,
2013-01-20 20:52:00,31.2,30.5,29.28,South,182,0.0,0.0,97,0.00,,,0.00,0,WeatherCatV1.13B101,2013-01-20 20:52:00,
2013-01-20 20:57:00,31.1,30.4,29.28,South,182,0.0,1.0,97,0.00,,,0.00,0,WeatherCatV1.13B101,2013-01-20 20:57:00,
2013-01-20 21:02:00,31.1,30.4,29.28,ESE,119,0.0,0.0,97,0.00,,,0.00,0,WeatherCatV1.13B101,2013-01-20 21:02:00,
2013-01-20 21:07:00,31.1,30.4,29.28,ESE,123,0.0,0.0,97,0.00,,,0.00,0,WeatherCatV1.13B101,2013-01-20 21:07:00,
2013-01-20 21:12:00,31.1,30.4,29.28,ESE,122,0.0,0.0,97,0.00,,,0.00,0,WeatherCatV1.13B101,2013-01-20 21:12:00,
2013-01-20 21:17:00,31.1,30.4,29.28,ESE,123,0.0,0.0,97,0.00,,,0.00,0,WeatherCatV1.13B101,2013-01-20 21:17:00,
2013-01-20 21:22:00,31.1,30.4,29.27,ESE,123,0.0,0.0,97,0.00,,,0.00,0,WeatherCatV1.13B101,2013-01-20 21:22:00,
2013-01-20 21:27:00,31.1,30.4,29.27,ESE,123,0.0,0.0,97,0.00,,,0.00,0,WeatherCatV1.13B101,2013-01-20 21:27:00,
2013-01-20 21:32:00,31.1,30.4,29.27,ESE,122,0.0,0.0,97,0.00,,,0.00,0,WeatherCatV1.13B101,2013-01-20 21:32:00,
2013-01-20 21:37:00,31.1,30.4,29.27,ESE,122,0.0,0.0,97,0.00,,,0.00,0,WeatherCatV1.13B101,2013-01-20 21:37:00,
2013-01-20 21:42:00,31.0,30.2,29.27,ESE,123,0.0,0.0,97,0.00,,,0.00,0,WeatherCatV1.13B101,2013-01-20 21:42:00,
2013-01-20 21:47:00,31.0,30.2,29.27,West,269,0.0,1.0,97,0.00,,,0.00,0,WeatherCatV1.13B101,2013-01-20 21:47:00,
2013-01-20 21:52:00,30.9,30.2,29.27,NW,308,0.0,0.0,97,0.00,,,0.00,0,WeatherCatV1.13B101,2013-01-20 21:52:00,
2013-01-20 21:57:00,30.8,30.1,29.27,NW,306,0.0,0.0,97,0.00,,,0.00,0,WeatherCatV1.13B101,2013-01-20 21:57:00,
2013-01-20 22:02:00,30.8,30.1,29.27,NW,306,0.0,0.0,97,0.00,,,0.00,0,WeatherCatV1.13B101,2013-01-20 22:02:00,
2013-01-20 22:07:00,30.8,30.1,29.27,NW,306,0.0,0.0,97,0.00,,,0.00,0,WeatherCatV1.13B101,2013-01-20 22:07:00,
2013-01-20 22:12:00,30.7,30.0,29.27,NW,306,0.0,0.0,97,0.00,,,0.00,0,WeatherCatV1.13B101,2013-01-20 22:12:00,
2013-01-20 22:17:00,30.7,30.0,29.27,NW,306,0.0,0.0,97,0.00,,,0.00,0,WeatherCatV1.13B101,2013-01-20 22:17:00,
2013-01-20 22:22:00,30.6,29.9,29.27,NW,306,0.0,0.0,97,0.00,,,0.00,0,WeatherCatV1.13B101,2013-01-20 22:22:00,
2013-01-20 22:27:00,30.6,29.9,29.27,NW,306,0.0,0.0,97,0.00,,,0.00,0,WeatherCatV1.13B101,2013-01-20 22:27:00,
2013-01-20 22:32:00,30.6,29.9,29.27,NW,306,0.0,0.0,97,0.00,,,0.00,0,WeatherCatV1.13B101,2013-01-20 22:32:00,
2013-01-20 22:37:00,30.6,29.9,29.27,NW,306,0.0,0.0,97,0.00,,,0.00,0,WeatherCatV1.13B101,2013-01-20 22:37:00,
2013-01-20 22:42:00,30.6,29.9,29.27,NW,306,0.0,0.0,97,0.00,,,0.00,0,WeatherCatV1.13B101,2013-01-20 22:42:00,
2013-01-20 22:47:00,30.6,29.9,29.27,NW,306,0.0,0.0,97,0.00,,,0.00,0,WeatherCatV1.13B101,2013-01-20 22:47:00,
2013-01-20 22:52:00,30.6,29.9,29.27,NW,306,0.0,0.0,97,0.00,,,0.00,0,WeatherCatV1.13B101,2013-01-20 22:52:00,
2013-01-20 22:57:00,30.6,29.9,29.27,NW,306,0.0,0.0,97,0.00,,,0.00,0,WeatherCatV1.13B101,2013-01-20 22:57:00,
2013-01-20 23:02:00,30.6,29.9,29.27,NW,306,0.0,0.0,97,0.00,,,0.00,0,WeatherCatV1.13B101,2013-01-20 23:02:00,
2013-01-20 23:07:00,30.6,29.9,29.27,NW,306,0.0,0.0,97,0.00,,,0.00,0,WeatherCatV1.13B101,2013-01-20 23:07:00,
2013-01-20 23:12:00,30.6,29.9,29.27,NW,306,0.0,0.0,97,0.00,,,0.00,0,WeatherCatV1.13B101,2013-01-20 23:12:00,
2013-01-20 23:17:00,30.7,30.0,29.27,NW,306,0.0,0.0,97,0.00,,,0.00,0,WeatherCatV1.13B101,2013-01-20 23:17:00,
2013-01-20 23:22:00,30.7,30.0,29.27,NW,306,0.0,0.0,97,0.00,,,0.00,0,WeatherCatV1.13B101,2013-01-20 23:22:00,
2013-01-20 23:27:00,30.7,30.0,29.27,NW,306,0.0,0.0,97,0.00,,,0.00,0,WeatherCatV1.13B101,2013-01-20 23:27:00,
2013-01-20 23:32:00,30.8,30.1,29.27,NW,306,0.0,0.0,97,0.00,,,0.00,0,WeatherCatV1.13B101,2013-01-20 23:32:00,
2013-01-20 23:37:00,30.8,30.1,29.27,NW,306,0.0,0.0,97,0.00,,,0.00,0,WeatherCatV1.13B101,2013-01-20 23:37:00,
2013-01-20 23:42:00,30.8,30.1,29.27,NW,306,0.0,0.0,97,0.00,,,0.00,0,WeatherCatV1.13B101,2013-01-20 23:42:00,
2013-01-20 23:47:00,30.8,30.1,29.27,NW,306,0.0,0.0,97,0.00,,,0.00,0,WeatherCatV1.13B101,2013-01-20 23:47:00,
2013-01-20 23:52:00,30.7,30.0,29.27,NW,306,0.0,0.0,97,0.00,,,0.00,0,WeatherCatV1.13B101,2013-01-20 23:52:00,
2013-01-20 23:57:00,30.7,30.0,29.27,NW,306,0.0,0.0,97,0.00,,,0.00,0,WeatherCatV1.13B101,2013-01-20 23:57:00,